Regional Weather Roundup
Issued by NWS Goodland, KS

Home | Current Version | Previous Version | Graphics & Text | Print | Product List | Glossary On
Versions: 1 2 3 4 5 6 7 8 9 10 11 12 13 14 15 16 17 18 19 20 21 22 23 24 25 26 27 28 29 30 31 32 33 34 35 36 37 38 39 40 41 42 43 44 45 46 47 48 49 50
000
ASUS43 KGLD 260608
RWRGLD

GOODLAND FORECAST AREA HOURLY WEATHER ROUNDUP
NATIONAL WEATHER SERVICE GOODLAND KS
1200 AM MDT WED APR 26 2017

...OFFICIAL OBSERVATIONS...

CITY           SKY/WX    TMP DP  RH WIND       PRES   REMARKS
GOODLAND KS    CLOUDY    38  34  85 N20G26    29.74S
HILL CITY KS   CLOUDY    41  35  79 N16G24    29.73S
IMPERIAL NEB   CLOUDY    35  28  75 N17       29.80F
MCCOOK NEB     CLOUDY    38  30  73 N17       29.77R
AKRON CO         N/A     33  31  92 N18       29.81S
BURLINGTON CO  NOT AVBL
LIMON CO       MIX PCPN  36  34  92 N17       29.79S
$$

...UNOFFICIAL OBSERVATIONS...

CITY           SKY/WX    TMP DP  RH WIND       PRES   REMARKS
LENORA KS        N/A     38  32  79 MISG        N/A
NORTON KS      CLOUDY    37  28  70 NW21      29.72
SHARON SPRINGS   N/A     41  37  84 NE14        N/A
TRENTON NEB      N/A     36  32  85 NW15        N/A
KIT CARSON CO    N/A     38  34  87 MISG        N/A
YUMA CO        MOCLDY    34  32  93 N13       29.81S
$$




USA.gov is the U.S. government's official web portal to all federal, state and local government web resources and services.